Regional Weather Roundup
Issued by NWS Upton, NY

Current Version | Previous Version | Text Only | Print | Product List | Glossary On
Versions: 1 2 3 4 5 6 7 8 9 10 11 12 13 14 15 16 17 18 19 20 21 22 23 24 25 26 27 28 29 30 31 32 33 34 35 36 37 38 39 40 41 42 43 44 45 46 47 48 49 50
000
ASUS41 KOKX 022305
RWROKX

REGIONAL WEATHER ROUNDUP
NATIONAL WEATHER SERVICE NEW YORK NY
600 PM EST MON MAR 02 2015

NOTE: "FAIR" INDICATES FEW OR NO CLOUDS BELOW 12,000 FEET WITH NO
SIGNIFICANT WEATHER AND/OR OBSTRUCTIONS TO VISIBILITY.

NYZ071-072-176-178-NJZ106-104-030000-
NEW YORK CITY METRO AREA


CITY           SKY/WX    TMP DP  RH WIND       PRES   REMARKS
CENTRAL PARK   CLEAR     36  11  35 W9        30.22R WCI  29
LAGUARDIA APRT CLEAR     36  12  37 NW17      30.20R WCI  26
KENNEDY INTL   PTCLDY    37  11  34 NW17      30.22R WCI  27
NEWARK/LIBERTY PTCLDY    35  12  38 NW15G30   30.21R WCI  25
BRNX BOT. GARD   N/A    N/A N/A N/A NW9       30.22R
TETERBORO      CLEAR     35  10  35 NW10      30.21R WCI  27
$$

NYZ177-179-078>081-030000-
LONG ISLAND NEW YORK

CITY           SKY/WX    TMP DP  RH WIND       PRES   REMARKS
FARMINGDALE    CLEAR     34  13  41 NW7       30.20R WCI  28
ISLIP          CLEAR     32  13  45 NW9       30.17R WCI  24
SHIRLEY        CLEAR     33  13  43 W9        30.19R WCI  25
WESTHAMPTON    CLEAR     33  14  45 W13       30.17R WCI  24
MONTAUK POINT  NOT AVBL
$$

NYZ052-065-067-030000-
HUDSON VALLEY

CITY           SKY/WX    TMP DP  RH WIND       PRES   REMARKS
WHITE PLAINS   CLEAR     31  10  41 NW15G30   30.17R WCI  20
NEWBURGH       CLEAR     30  14  51 NW20G28   30.20R WCI  18
MONTGOMERY     CLEAR     31   8  38 NW15G24   30.21R WCI  20
POUGHKEEPSIE   CLEAR     31  10  41 W10       30.21R WCI  22
ALBANY         FLURRIES  27  15  61 NW21G37   30.22R WCI  13
$$

NJZ001-105-106-008-010-013-015-019>022-104-030000-
NEW JERSEY

CITY           SKY/WX    TMP DP  RH WIND       PRES   REMARKS
NEWARK/LIBERTY PTCLDY    35  12  38 NW15G30   30.21R WCI  25
TETERBORO      CLEAR     35  10  35 NW10      30.21R WCI  27
CALDWELL       CLEAR     34   9  35 NW12G17   30.23R WCI  25
MORRISTOWN     NOT AVBL
SOMERVILLE     CLEAR     36   9  32 NW14      30.22R WCI  27
SUSSEX         CLEAR     32   8  36 NW3       30.23R
ANDOVER          N/A     31   7  36 VRB7G17   30.22R WCI  24
TRENTON        CLEAR     36  12  37 NW13      30.24R WCI  27
MILLVILLE      CLEAR     35  15  44 NW13      30.28R WCI  26
ATLANTIC CITY  CLEAR     36  17  46 W10       30.26R WCI  28
WRIGHTSTOWN    CLEAR     35  14  43 NW12      30.22R WCI  27
TOMS RIVER     CLEAR     36  16  44 W14G21    30.24R WCI  27
BELMAR         CLEAR     36  14  41 NW14G23   30.21R WCI  27
$$

PAZ047>061-062-071-030000-
EASTERN PENNSYLVANIA

CITY           SKY/WX    TMP DP  RH WIND       PRES   REMARKS
PHILADELPHIA   PTCLDY    38  12  34 W16       30.29R WCI  29
ALLENTOWN      CLEAR     34  11  38 W14G20    30.24R WCI  25
SCRANTON       CLEAR     30   8  39 NW10      30.25R WCI  21
$$

CTZ002-004>006-009-010-012-RIZ004-006-007-MAZ004-011-015-030000-
SOUTHERN NEW ENGLAND
 IN CT

CITY           SKY/WX    TMP DP  RH WIND       PRES   REMARKS
BRADLEY INTL   PTCLDY    30   9  41 NW14      30.15R WCI  19
HARTFORD       PTCLDY    31  11  43 NW10G24   30.18R WCI  22
DANBURY        CLEAR     30   7  37 W13G22    30.18R WCI  20
WTRBRY/OXFORD  CLEAR     36   9  32 NW10G16   30.15R WCI  28
BRIDGEPORT     CLEAR     33  12  41 NW13      30.18R WCI  24
MERIDEN        CLEAR     32  10  40 NW13      30.17R WCI  22
NEW HAVEN      CLEAR     34  11  38 NW12G22   30.17R WCI  25
CHESTER        FAIR      32  10  40 NW9G18    30.13R WCI  24
GROTON         CLEAR     31  12  45 NW13      30.14R WCI  21
WILLIMANTIC    CLEAR     30  10  43 NW18G25   30.13R WCI  18

 IN RI

CITY           SKY/WX    TMP DP  RH WIND       PRES   REMARKS
PROVIDENCE     PTCLDY    31  10  41 NW14G25   30.10R WCI  21
BLOCK ISLAND   CLEAR     34  14  44 NW8G22    30.10R WCI  27
WESTERLY       CLEAR     33  10  38 NW12G20   30.13R WCI  24

 IN MA

CITY           SKY/WX    TMP DP  RH WIND       PRES   REMARKS
BOSTON         PTCLDY    32  14  47 W15G30    30.06R WCI  22
WORCESTER      CLEAR     25   9  50 W30G44    30.03R BLWGSNOWWCI   8
WESTFIELD      MOCLDY    29  10  45 NW12G26   30.14R WCI  19
PROVINCETOWN   CLEAR     32  16  51 W29       30.03R WCI  18
NANTUCKET      CLEAR     32  15  49 W18       30.06R WCI  20
$$

ANZ330-335-338-340-345-350-353-355-030000-
COASTAL MARINE OBSERVATIONS


STATION/POSITION TIME  SKY/WX   TEMP    WIND        PRES    VSBY  WAVE
                                AIR SEA DIR/SP/G                  HT/PER
                 (UTC)          (F)     (DEG/KT/KT) (MB)    (MI)  (FT/S)
NY HARB ENTRANCE 2300            38 38  310/ 17/ 21 1022.8          4/ 8
4S FIRE IS       2300               32                N/A           3/ 9
20S FIRE ISLAND  2200               37              1021.7          5/ 5
23SW MTP         2300                                 N/A           5/ 8
HUDSON CANYON    NOT AVBL
EXECUTION ROCKS  NOT AVBL
WESTERN LI SOUND NOT AVBL
CENTRAL LI SOUND NOT AVBL
EASTERN LI SOUND NOT AVBL
ROBBINS REEF     2300            37     310/ 24/ 31 1021.4
$$


>>>>>>>>>>>>>>>>>>>>>>>>>>>> KEY <<<<<<<<<<<<<<<<<<<<<<<<<<<
>                                                          <
>     SKY/WX - SKY CONDITION/PRESENT WEATHER               <
>     TMP    - TEMPERATURE IN FAHRENHEIT                   <
>     DP     - DEWPOINT IN FAHRENHEIT                      <
>     RH     - RELATIVE HUMIDITY IN PERCENT                <
>     WIND   - DIRECTION AND SPEED IN MPH                  <
>     PRES   - MEAN SEA LEVEL PRESSURE IN INCHES OF HG     <
>     WCI    - WIND CHILL INDEX                            <
>     VSB    - VISIBILITY IN MILES                         <
>     HX     - HEAT INDEX                                  <
>     TC     - TEMPERATURE IN CELSIUS                      <
>     VRB    - VARIABLE WIND DIRECTION                     <
>                                                          <
>>>>>>>>>>>>>>>>>>>>>>>>>>>> KEY <<<<<<<<<<<<<<<<<<<<<<<<<<<




USA.gov is the U.S. government's official web portal to all federal, state and local government web resources and services.